Location: Newark
(47.3150°N, 5.1150°E)
Time: 01:29:34
(UTC+00:00)

AO-7 - Pass Details

Date: 22 December 2019
Orbit: 1440 x 1458 km, 101.8° (Epoch: 23 January)

Event Time Altitude Azimuth Distance (km) Brightness Sun altitude
Rises 05:01:22 0° 15° (NNE) 4,565 ? -23.0°
Reaches altitude 10° 05:04:20 10° 9° (N) 3,586 ? -22.5°
Maximum altitude 05:11:54 40° 304° (NW) 2,027 ? -21.3°
Enters shadow 05:15:47 26° 257° (WSW) 2,537 ? -20.6°
